Weather History for KLCK - December, 2012

Change the Weather History Date:

Saturday, December 8, 2012

  Actual Average (KCMH) Record (KCMH)
Temperature  
Mean Temperature 48 °F 36 °F  
Max Temperature 52 °F 42 °F 69 °F (1966)
Min Temperature 43 °F 29 °F -4 °F (1882)
Degree Days  
Heating Degree Days 18 29  
Month to date heating degree days 225  
Since 1 July heating degree days 1239  
Cooling Degree Days 0 0  
Month to date cooling degree days 0  
Year to date cooling degree days 1024  
Moisture  
Dew Point 45 °F    
Average Humidity 86    
Maximum Humidity 90    
Minimum Humidity 79    
Precipitation  
Precipitation 0.00 in 0.10 in 1.74 in (1978)
Month to date precipitation 0.78  
Year to date precipitation 37.12  
Snow  
Snow 0.00 in 0.10 in 5.80 in (1917)
Month to date snowfall 0.9  
Since 1 July snowfall 2.0  
Snow Depth -    
Sea Level Pressure  
Sea Level Pressure 29.91 in    
Wind  
Wind Speed 7 mph (WSW)    
Max Wind Speed 14 mph    
Max Gust Speed 17 mph    
Visibility 6 miles    
Events Rain    
T = Trace of Precipitation, MM = Missing Value Source: NWS Daily Summary

Daily Weather History Graph

Daily Weather History Graph

Search for Another Location

Airport or City:

Trip Planner

Search our weather history database for the weather conditions in past years. The results will help you decide how hot, cold, wet, or windy it might be!

Date:

Astronomy

Dec. 08, 2012 Rise Set
Actual Time 7:40 AM EST 5:06 PM EST
Civil Twilight 7:10 AM EST 5:37 PM EST
Nautical Twilight 6:36 AM EST 6:10 PM EST
Astronomical Twilight 6:03 AM EST 6:43 PM EST
Moon 2:04 AM EST (12/8) 1:35 PM EST (12/8)
Length of Visible Light 10h 26m
Length of Day
9h 26m
Waning Crescent, 28% of the Moon is Illuminated
Dec 8
Waning Crescent
Dec 13
New
Dec 20
First Quarter
Dec 28
Full
Jan 4
Last Quarter

Hourly Weather History & Observations

Time (EST) Temp. Windchill Dew Point Humidity Pressure Visibility Wind Dir Wind Speed Gust Speed Precip Events Conditions
12:15 AM 50.9 °F - 48.2 °F 90% 29.83 in 7.0 mi South 6.9 mph - N/A   Overcast
12:35 AM 50.9 °F - 48.2 °F 90% 29.83 in 7.0 mi South 5.8 mph - N/A   Overcast
12:55 AM 50.9 °F - 48.2 °F 90% 29.83 in 7.0 mi South 5.8 mph - N/A   Overcast
1:15 AM 51.1 °F - 48.2 °F 90% 29.83 in 7.0 mi SSW 13.8 mph 17.3 mph N/A   Overcast
1:35 AM 51.4 °F - 48.2 °F 89% 29.83 in 7.0 mi SSW 9.2 mph - N/A   Overcast
1:55 AM 51.1 °F - 48.0 °F 89% 29.83 in 7.0 mi SSW 8.1 mph - N/A   Overcast
2:15 AM 50.9 °F - 47.5 °F 88% 29.83 in 5.0 mi SSW 9.2 mph - N/A   Overcast
2:35 AM 50.5 °F - 46.8 °F 87% 29.84 in 7.0 mi SSW 9.2 mph - N/A   Overcast
2:55 AM 50.0 °F - 46.0 °F 86% 29.83 in 7.0 mi SSW 8.1 mph - N/A   Overcast
3:15 AM 48.9 °F - 45.1 °F 87% 29.84 in 7.0 mi SW 6.9 mph - N/A   Mostly Cloudy
3:35 AM 48.4 °F - 44.6 °F 87% 29.85 in 7.0 mi SW 9.2 mph - N/A   Mostly Cloudy
3:55 AM 48.2 °F - 44.2 °F 86% 29.84 in 7.0 mi SW 4.6 mph - N/A   Scattered Clouds
4:15 AM 46.9 °F - 43.3 °F 87% 29.84 in 7.0 mi SSW 8.1 mph - N/A   Scattered Clouds
4:35 AM 47.3 °F - 43.9 °F 88% 29.83 in 5.0 mi SSW 5.8 mph - N/A   Mostly Cloudy
4:55 AM 46.8 °F - 43.3 °F 88% 29.84 in 5.0 mi SSW 5.8 mph - N/A   Mostly Cloudy
5:15 AM 47.1 °F - 43.9 °F 88% 29.84 in 5.0 mi Calm Calm - N/A   Mostly Cloudy
5:35 AM 47.1 °F - 44.1 °F 89% 29.83 in 3.0 mi SSW 4.6 mph - N/A   Scattered Clouds
5:55 AM 46.9 °F - 43.9 °F 89% 29.85 in 4.0 mi SW 5.8 mph - N/A   Overcast
6:15 AM 48.0 °F - 44.8 °F 89% 29.84 in 5.0 mi SSW 5.8 mph - N/A   Overcast
6:35 AM 48.6 °F - 45.1 °F 88% 29.84 in 5.0 mi South 4.6 mph - N/A   Overcast
6:55 AM 48.0 °F - 44.6 °F 88% 29.85 in 4.0 mi SW 5.8 mph - N/A   Mostly Cloudy
7:15 AM 47.8 °F - 44.6 °F 89% 29.86 in 5.0 mi SSW 8.1 mph - N/A   Mostly Cloudy
7:35 AM 49.1 °F - 45.5 °F 87% 29.86 in 4.0 mi SSW 6.9 mph - N/A Rain Light Rain
7:55 AM 49.1 °F - 45.5 °F 87% 29.86 in 4.0 mi South 8.1 mph - N/A   Overcast
8:15 AM 49.5 °F - 45.7 °F 87% 29.86 in 4.0 mi South 10.4 mph - N/A   Overcast
8:35 AM 49.6 °F - 45.9 °F 87% 29.86 in 4.0 mi SSW 5.8 mph - N/A Rain Light Rain
8:55 AM 49.6 °F - 46.2 °F 88% 29.86 in 2.5 mi SSW 5.8 mph - N/A Rain Light Rain
9:15 AM 49.5 °F - 46.4 °F 89% 29.87 in 1.8 mi SSW 3.5 mph - N/A Rain Light Rain
9:35 AM 49.6 °F - 46.6 °F 89% 29.87 in 1.5 mi South 4.6 mph - N/A Rain Rain
9:55 AM 50.4 °F - 47.3 °F 89% 29.88 in 1.5 mi SSW 3.5 mph - N/A Rain Light Rain
10:15 AM 50.7 °F - 47.8 °F 90% 29.88 in 1.2 mi WSW 4.6 mph - N/A Rain Light Rain
10:35 AM 50.5 °F - 47.7 °F 90% 29.88 in 1.2 mi West 6.9 mph - N/A Rain Rain
10:55 AM 51.3 °F - 48.4 °F 90% 29.88 in 1.5 mi SW 5.8 mph - N/A Rain Light Rain
11:15 AM 51.6 °F - 48.6 °F 89% 29.88 in 1.5 mi WSW 6.9 mph - N/A Rain Rain
11:35 AM 51.8 °F - 48.7 °F 89% 29.88 in 3.0 mi WSW 4.6 mph - N/A   Overcast
11:55 AM 51.6 °F - 48.0 °F 87% 29.86 in 3.0 mi SW 4.6 mph - N/A   Overcast
12:15 PM 51.4 °F - 47.5 °F 86% 29.86 in 4.0 mi WSW 6.9 mph - N/A Rain Light Rain
12:35 PM 51.3 °F - 46.9 °F 85% 29.86 in 5.0 mi SW 4.6 mph - N/A   Overcast
12:55 PM 51.3 °F - 47.3 °F 86% 29.86 in 4.0 mi West 5.8 mph - N/A   Light Drizzle
1:15 PM 51.3 °F - 47.1 °F 86% 29.86 in 4.0 mi West 4.6 mph - N/A   Overcast
1:35 PM 51.1 °F - 46.9 °F 86% 29.87 in 4.0 mi West 5.8 mph - N/A   Overcast
1:55 PM 51.4 °F - 46.8 °F 84% 29.87 in 4.0 mi West 6.9 mph - N/A Rain Light Rain
2:15 PM 51.8 °F - 46.8 °F 83% 29.88 in 7.0 mi West 6.9 mph - N/A   Overcast
2:35 PM 51.8 °F - 46.6 °F 82% 29.89 in 7.0 mi West 5.8 mph - N/A   Overcast
2:55 PM 52.2 °F - 46.6 °F 81% 29.90 in 7.0 mi WNW 3.5 mph - N/A   Overcast
3:15 PM 52.5 °F - 46.6 °F 80% 29.91 in 7.0 mi West 5.8 mph - N/A   Overcast
3:35 PM 52.5 °F - 46.4 °F 80% 29.92 in 10.0 mi WNW 9.2 mph - N/A   Overcast
3:55 PM 52.2 °F - 45.7 °F 79% 29.92 in 10.0 mi NNW 12.7 mph - N/A   Overcast
4:15 PM 51.4 °F - 45.0 °F 79% 29.93 in 7.0 mi NW 6.9 mph - N/A   Overcast
4:35 PM 51.1 °F - 44.8 °F 79% 29.94 in 5.0 mi NW 5.8 mph - N/A   Haze
4:55 PM 50.9 °F - 44.8 °F 80% 29.95 in 7.0 mi NW 6.9 mph - N/A   Overcast
5:15 PM 50.5 °F - 44.6 °F 80% 29.95 in 7.0 mi NNW 5.8 mph - N/A   Overcast
5:35 PM 50.0 °F - 44.2 °F 81% 29.96 in 7.0 mi NW 6.9 mph - N/A   Overcast
5:55 PM 49.5 °F - 43.9 °F 81% 29.97 in 10.0 mi NW 8.1 mph - N/A   Overcast
6:15 PM 49.1 °F - 43.7 °F 82% 29.98 in 10.0 mi NNW 8.1 mph - N/A   Overcast
6:35 PM 49.6 °F - 43.9 °F 81% 29.99 in 10.0 mi NNW 8.1 mph - N/A   Overcast
6:55 PM 48.9 °F - 43.7 °F 82% 30.00 in 7.0 mi North 5.8 mph - N/A   Overcast
7:15 PM 48.4 °F - 43.2 °F 82% 30.01 in 10.0 mi North 6.9 mph - N/A   Overcast
7:35 PM 48.4 °F - 43.0 °F 82% 30.01 in 10.0 mi North 4.6 mph - N/A   Overcast
7:55 PM 48.0 °F - 42.8 °F 82% 30.02 in 10.0 mi NNE 8.1 mph - N/A   Overcast
8:15 PM 47.1 °F - 42.3 °F 83% 30.03 in 10.0 mi North 6.9 mph - N/A   Overcast
8:55 PM 46.6 °F - 41.9 °F 84% 30.03 in 10.0 mi North 11.5 mph - N/A   Overcast
9:15 PM 45.7 °F 40.6 °F 41.2 °F 84% 30.03 in 7.0 mi North 10.4 mph - N/A   Overcast
9:35 PM 44.6 °F 39.7 °F 40.3 °F 85% 30.03 in 7.0 mi North 9.2 mph - N/A   Overcast
9:55 PM 44.1 °F 39.0 °F 40.1 °F 86% 30.03 in 10.0 mi NNE 9.2 mph - N/A   Overcast
10:15 PM 44.1 °F 39.5 °F 39.9 °F 85% 30.04 in 10.0 mi NE 8.1 mph - N/A   Overcast
10:35 PM 43.7 °F 40.3 °F 39.6 °F 85% 30.04 in 10.0 mi NE 5.8 mph - N/A   Overcast
10:55 PM 43.2 °F 39.7 °F 39.2 °F 86% 30.05 in 10.0 mi ENE 5.8 mph - N/A   Overcast
11:15 PM 43.7 °F 40.3 °F 39.2 °F 84% 30.05 in 10.0 mi NE 5.8 mph - N/A   Overcast
11:35 PM 43.9 °F 39.3 °F 39.2 °F 84% 30.05 in 10.0 mi NE 8.1 mph - N/A   Overcast
11:55 PM 44.1 °F 38.6 °F 39.2 °F 83% 30.05 in 10.0 mi NE 10.4 mph - N/A   Overcast